Home   Weather   Thônex   Past weeks

Flag for Switzerland Past Weather in Thônex, Geneva, Switzerland — Yesterday and Last 2 Weeks

Now
45 °F

Light rain. Partly cloudy.


Feels Like: 41 °F
Forecast: 41 / 48 °F
Wind: 6 mph from Northeast

Location: Geneva Cointrin Airport

Current Time: Apr 26, 2017 at 9:41:26 pm

Latest Report: Apr 26, 2017 at 9:20 pm


Visibility: N/A

Pressure: 29.86 "Hg

Humidity: 87%

Dew Point: 41 °F

Location of ThônexLocation

Past Weather in Thônex — Graph

°F

Thônex Temperature Yesterday

Maximum temperature yesterday: 61 °F (at 12:20 am)
Minimum temperature yesterday: 48 °F (at 7:50 pm)
Average temperature yesterday: 53 °F

High & Low Weather Summary for the Past Weeks

 TemperatureHumidityPressure
High72 °F (Apr 12, 4:50 pm)100% (Apr 25, 7:50 pm)30.45 "Hg (Apr 25, 7:50 pm)
Low32 °F (Apr 22, 5:20 am)14% (Apr 21, 6:50 pm)29.68 "Hg (Apr 25, 8:50 pm)
Average51 °F57%30.11 "Hg
* Reported Apr 11 7:20 pm — Apr 26 7:50 pm, Thônex, Weather by CustomWeather, © 2017

Note: Actual official high and low records may vary slightly from our data, if they occured in-between our weather recording intervals... More about our weather records

Advertising

Thônex Weather History for the Previous 24 Hours

Scroll right to see more
 ConditionsComfort  
Time TempWeatherWind HumidityBarometerVisibility
7:50 pm
Wed, Apr 26
45 °FBroken clouds.8 mph87%29.86 "HgN/A
7:20 pm46 °FBroken clouds.10 mph82%29.83 "HgN/A
6:50 pm48 °FBroken clouds.7 mph76%29.83 "HgN/A
6:20 pm50 °FBroken clouds.9 mph67%29.80 "HgN/A
5:50 pm48 °FBroken clouds.14 mph71%29.83 "HgN/A
5:20 pm50 °FBroken clouds.12 mph67%29.80 "HgN/A
4:50 pm50 °FBroken clouds.16 mph67%29.80 "HgN/A
4:20 pm50 °FBroken clouds.13 mph71%29.80 "HgN/A
3:50 pm50 °FBroken clouds.12 mph71%29.80 "HgN/A
3:20 pm50 °FPartly sunny.13 mph71%29.80 "HgN/A
2:50 pm54 °FScattered clouds.16 mph67%29.80 "HgN/A
2:20 pm52 °FScattered clouds.13 mph72%29.80 "HgN/A
1:50 pm50 °FScattered clouds.13 mph76%29.77 "HgN/A
1:20 pm50 °FPartly sunny.13 mph71%29.77 "HgN/A
12:50 pm50 °FPartly sunny.13 mph76%29.77 "HgN/A
12:20 pm48 °FPartly sunny.13 mph82%29.77 "HgN/A
11:50 am46 °FPartly sunny.15 mph87%29.77 "HgN/A
11:20 am48 °FPartly sunny.14 mph82%29.77 "HgN/A
10:50 am46 °FScattered showers. Partly sunny.13 mph87%29.77 "HgN/A
10:20 am46 °FScattered showers. Partly sunny.16 mph87%29.74 "HgN/A
9:50 am46 °FPartly sunny.15 mph87%29.74 "HgN/A
9:20 am46 °FLight rain. Broken clouds.15 mph93%29.74 "HgN/A
8:50 am46 °FLight rain. Broken clouds.14 mph93%29.71 "HgN/A
8:20 am46 °FLight rain. More clouds than sun.8 mph93%29.71 "HgN/A
7:50 am46 °FLight rain. More clouds than sun.9 mph93%29.71 "HgN/A
7:20 am46 °FLight rain. Broken clouds.7 mph93%29.71 "HgN/A
6:50 am46 °FRain. More clouds than sun.3 mph93%29.71 "Hg5 mi
6:20 am46 °FLight rain. Mostly cloudy.5 mph93%29.71 "HgN/A
5:50 am46 °FLight rain. Mostly cloudy.7 mph93%29.71 "HgN/A
5:20 am46 °FLight rain. Passing clouds.9 mph93%29.71 "HgN/A
4:50 am46 °FLight rain. Passing clouds.8 mph93%29.71 "HgN/A
4:20 am46 °FLight rain. Passing clouds.9 mph93%29.71 "HgN/A
3:50 am46 °FLight rain. Passing clouds.9 mph93%29.71 "HgN/A
3:20 am46 °FLight rain. Partly cloudy.8 mph93%29.71 "HgN/A
2:50 am46 °FLight rain. Partly cloudy.14 mph87%29.71 "HgN/A
2:20 am46 °FLight rain. Partly cloudy.17 mph93%29.74 "HgN/A
1:50 am48 °FLight rain. Passing clouds.15 mph94%29.74 "HgN/A
1:20 am48 °FRain. Mostly cloudy.12 mph94%29.74 "HgN/A
12:50 am48 °FRain. Passing clouds.9 mph94%29.74 "HgN/A
12:20 am50 °FLight rain. Passing clouds.10 mph88%29.74 "HgN/A
11:50 pm
Tue, Apr 25
50 °FRain. Passing clouds.12 mph94%29.74 "HgN/A
11:20 pm50 °FLight rain. Passing clouds.10 mph94%29.71 "HgN/A
10:50 pm48 °FLight rain. Mostly cloudy.3 mph100%29.71 "Hg4 mi
10:20 pm48 °FLight rain. Fog.2 mph100%29.71 "Hg2 mi
9:50 pm48 °FRain. Mostly cloudy.2 mph100%29.71 "Hg3 mi
Weather by CustomWeather, © 2017

See weather overviewHow to use our weather pages